x

West Sea Otter (46204) Wave Buoy

1:00 - Sat 23rd Sep 2017 All times are PDT. -7 hours from GMT.

  • Sig Wave height 2.3ft
  • Peak Period 7s
  • Wind
    7mph, 9mph gusts
  • Sea Temp 56°f
  • Aire Temp 53°f
  • Sea Pressure 1016.7mb
  • West Sea Otter
  • West Sea Otter

More Historic Weather Station data

Upgrade to MSW Pro to gain access to the past 30 days of data for over 8000 Wavebouys and Weather Stations around the globe.

Join

Comparision Forecast

View Surf forecast
   
sáb 09/23 1:00 2.5ft 7s 7 9 mph 1016.7mb 56f 53f
12:00 2.5ft 6s 9 9 mph 1016.9mb 56f 53f
vie 09/22 11:00 2.5ft 12s 9 9 mph 1017.1mb 56f 53f
10:00 2.5ft 12s 9 9 mph 1017.4mb 56f 53f
9:00 2.5ft 12s 7 9 mph 1017.6mb 56f 53f
8:00 2.5ft 12s 7 7 mph 1017.9mb 56f 54f
7:00 2.5ft 12s 4 4 mph 1018mb 56f 53f
6:00 2.5ft 7s  -  2 mph 1018.3mb 56f 54f
5:00 2.5ft 14s 4 4 mph 1018.6mb 56f 55f
4:00 3ft 13s 9 11 mph 1018.8mb 56f 55f
3:00 3ft 6s 9 11 mph 1019mb 56f 56f
2:00 3.5ft 5s 9 11 mph 1018.9mb 56f 56f
1:00 3.5ft 5s 9 11 mph 1019.1mb 56f 56f
12:00 4.5ft 7s 7 7 mph 1019.1mb 56f 56f
11:00 4.5ft 6s 7 9 mph 1019.1mb 56f 56f
10:00 4.5ft 7s 7 7 mph 1019.2mb 56f 56f
9:00 4ft 6s 7 9 mph 1019.1mb 56f 56f
8:00 3.5ft 8s 9 11 mph 1018.7mb 56f 56f
7:00 4ft 6s 11 13 mph 1018.8mb 56f 56f
6:00 4.5ft 8s 11 13 mph 1018.6mb 56f 56f
5:00 4.5ft 6s 13 13 mph 1018.4mb 56f 56f
4:00 5ft 6s 13 18 mph 1018mb 56f 56f
3:00 5.5ft 6s 16 18 mph 1017.8mb 56f 56f
2:00 5.5ft 6s 16 20 mph 1018mb 56f 56f
1:00 5.5ft 6s 18 20 mph 1017.7mb 56f 56f
12:00 6ft 7s 16 18 mph 1017.6mb 55f 56f
jue 09/21 11:00 5.5ft 8s 18 20 mph 1017.6mb 55f 56f
10:00 5.5ft 7s 20 22 mph 1017.5mb 55f 56f
9:00 5ft 6s 18 20 mph 1017.5mb 55f 56f
8:00 5ft 7s 18 20 mph 1017.4mb 56f 56f
7:00 5.5ft 9s 18 22 mph 1017.3mb 56f 56f
6:00 6ft 8s 20 22 mph 1017mb 56f 56f
5:00  -   -  20
mph
1017mb - 56f
4:00 6ft 9s 22 25 mph 1016.7mb 56f 56f
3:00 6ft 9s 18 22 mph 1016.4mb 56f 56f
2:00 7ft 10s 18 22 mph 1016.1mb 56f 56f
1:00 6.5ft 7s 18 22 mph 1016.1mb 56f 56f
12:00 6.5ft 10s 16 20 mph 1016.1mb 55f 56f
9:00 7ft 10s 16 20 mph 1015.9mb 56f 56f
8:00 7ft 11s 13 18 mph 1015.6mb 55f 56f
7:00 7ft 10s 18 22 mph 1015mb 55f 56f
6:00 6.5ft 10s 18 22 mph 1014.5mb 55f 56f
5:00 6.5ft 10s 18 22 mph 1014.1mb 55f 56f
4:00 6.5ft 10s 13 18 mph 1013.6mb 55f 56f
3:00 6.5ft 9s 16 20 mph 1013.1mb 55f 56f
2:00 8ft 10s 18 22 mph 1012.9mb 55f 56f
1:00 7ft 10s 18 20 mph 1012.8mb 55f 56f
12:00 7.5ft 9s 16 18 mph 1012.6mb 56f 57f
mié 09/20 11:00 8ft 7s 16 20 mph 1012.3mb 56f 57f
10:00 8ft 10s 20 25 mph 1012mb 56f 57f
9:00 8ft 10s 18 22 mph 1011.8mb 56f 57f
8:00 8ft 9s 22 25 mph 1011.3mb 56f 57f
7:00 8.5ft 10s 22 27 mph 1010.8mb 56f 58f
6:00 8.5ft 10s 22 31 mph 1010.3mb 56f 57f
5:00 8ft 8s 25 29 mph 1009.9mb 56f 57f
4:00 8ft 7s 22 29 mph 1009.5mb 56f 56f
3:00 8ft 8s 22 27 mph 1009.1mb 56f 56f
2:00 8ft 7s 22 29 mph 1008.6mb 56f 55f
1:00 8ft 7s 22 27 mph 1008.5mb 56f 55f
12:00 8ft 8s 22 27 mph 1008.3mb 56f 55f
11:00 7ft 8s 25 29 mph 1007.9mb 56f 55f
10:00 7ft 8s 22 27 mph 1007.8mb 56f 55f
9:00 6ft 9s 22 27 mph 1007.8mb 56f 55f
8:00 6ft 9s 20 25 mph 1007.8mb 56f 55f
7:00 5.5ft 10s 20 25 mph 1007.7mb 56f 55f
6:00 6ft 10s 20 27 mph 1007.4mb 56f 55f
5:00 5ft 10s 20 27 mph 1007.1mb 55f 55f
4:00 5ft 10s 20 25 mph 1006.9mb 55f 55f
3:00 5ft 11s 20 27 mph 1006.8mb 55f 55f
2:00 5ft 9s 20 25 mph 1006.6mb 55f 55f
1:00 5ft 11s 20 22 mph 1006.5mb 55f 55f
12:00 5ft 9s 16 18 mph 1006.7mb 56f 55f
mar 09/19 11:00 6ft 11s 13 18 mph 1006.8mb 55f 55f
10:00 6ft 11s 11 13 mph 1006.8mb 56f 55f
9:00 6ft 11s 11 13 mph 1006.8mb 56f 55f
8:00 6ft 9s 9 11 mph 1006.7mb 56f 55f
7:00 5.5ft 12s 9 9 mph 1006.7mb 56f 55f
6:00 5ft 12s 7 9 mph 1006.7mb 56f 55f
5:00 6ft 11s 4 9 mph 1006.9mb 57f 55f
4:00 5.5ft 12s 4 7 mph 1007mb 57f 55f
3:00 6ft 11s 2 4 mph 1007.3mb 57f 55f
2:00 6ft 11s 4 7 mph 1007.5mb 56f 55f
1:00 6.5ft 9s 4 7 mph 1007.8mb 56f 55f
12:00 7ft 12s 7 9 mph 1007.9mb 56f 55f
11:00 7.5ft 14s 7 9 mph 1007.7mb 56f 55f
10:00 8.5ft 11s 9 11 mph 1008mb 55f 55f